Погода в Мордовской Козловке

Россия / Республика Мордовия     54°27′44″N   43°18′40″E
темп.,
°C
ветер,
м/с
пор.,
м/с
влажн.,
%
обл.,
%
осадки,
мм/ч
давл.,
гПа
погр.,
м
7 марта, вс
вс700:00−14з23920 0.0 101420
03:00−15зюз34960 0.0 101445
06:00−15юз479848 0.0 1013100
09:00−11ююз6109171 0.0 1010322
12:00−6ююз8138399 0.0 10071009
15:00−5юз91693100 0.8 10021222
18:00−4юз81494100 1.9 9971083
21:00−4юз71495100 2.8 994853
8 марта, пн
пн800:00−2зсз81386100 2.1 993911
03:00−7з5119392 2.1 996336
06:00−9зюз5119192 0.1 998353
09:00−8юз489278 0.1 999423
12:00−5юз699399 0.8 998881
15:00−4з8128099 2.1 9991288
18:00−7зсз488979 0.3 1002267
21:00−11зсз369267 0.3 100690
9 марта, вт
вт900:00−14з33940 0.0 100821
03:00−15з239623 0.0 100923
06:00−14з229695 0.1 101046
09:00−12сз249497 0.2 1011250
12:00−10ссз348797 0.1 1012602
15:00−9ссз358899 0.3 1013663
18:00−12ссз3596100 0.3 1014135
21:00−15ссз3796100 0.5 1016202
10 марта, ср
ср1000:00−18сз3698100 0.1 1018131
03:00−22сз3610093 0.1 1019100
06:00−23сз379990 0.0 1021144
09:00−21ссз469794 0.1 1023316
12:00−18ссз4689100 0.0 1024602
15:00−17ссз4786100 0.1 1025720
18:00−21ссз3394100 0.0 102623
21:00−24сз239756 0.0 102820
11 марта, чт
чт1100:00−25сз33980 0.0 102822
03:00−26сз23990 0.0 103020
06:00−26зсз33990 0.0 103029
09:00−21зсз36950 0.0 1031225
12:00−15зсз46905 0.0 1030365
15:00−12зсз468825 0.0 1030491
18:00−14зсз369584 0.0 1031113
21:00−17зсз349753 0.0 103238